Weather History for Llano, TX

Change the Weather History Date:

Tuesday, September 3, 2013

  Actual Average (KBMQ) Record (KBMQ)
Temperature  
Mean Temperature 84 °F -  
Max Temperature 98 °F 89 °F 106 °F (2000)
Min Temperature 69 °F 69 °F 62 °F (2004)
Cooling Degree Days 18    
Growing Degree Days 34 (Base 50)    
Moisture  
Dew Point 66 °F    
Average Humidity 59    
Maximum Humidity 94    
Minimum Humidity 28    
Precipitation  
Precipitation 0.00 in - - ()
Sea Level Pressure  
Sea Level Pressure 30.01 in    
Wind  
Wind Speed 1 mph (East)    
Max Wind Speed 10 mph    
Max Gust Speed -    
Visibility 10 miles    
Events      
Averages and records for this station are not official NWS values.
T = Trace of Precipitation, MM = Missing Value Source: NWS Daily Summary

Daily Weather History Graph

Daily Weather History Graph

Search for Another Location

Airport:

Trip Planner

Search our weather history database for the weather conditions in past years. The results will help you decide how hot, cold, wet, or windy it might be!

Date:

Astronomy

Sep. 03, 2013 Rise Set
Actual Time 7:12 AM CDT 7:54 PM CDT
Civil Twilight 6:47 AM CDT 8:19 PM CDT
Nautical Twilight 6:18 AM CDT 8:48 PM CDT
Astronomical Twilight 5:49 AM CDT 9:17 PM CDT
Moon 5:31 AM CDT (9/3) 6:41 PM CDT (9/3)
Length of Visible Light 13h 31m
Length of Day
12h 42m
Waning Crescent, 3% of the Moon is Illuminated
Sep 3
Waning Crescent
Sep 5
New
Sep 12
First Quarter
Sep 19
Full
Sep 26
Last Quarter

Hourly Weather History & Observations

Time (CDT) Temp. Heat Index Dew Point Humidity Pressure Visibility Wind Dir Wind Speed Gust Speed Precip Events Conditions
12:15 AM 78.8 °F - 66.2 °F 65% 30.01 in 10.0 mi Calm Calm - N/A   Scattered Clouds
12:35 AM 78.8 °F - 66.2 °F 65% 30.02 in 10.0 mi Calm Calm - N/A   Clear
12:55 AM 78.8 °F - 68.0 °F 69% 30.02 in 10.0 mi Calm Calm - N/A   Clear
1:15 AM 78.8 °F - 68.0 °F 69% 30.01 in 10.0 mi Calm Calm - N/A   Clear
1:35 AM 78.8 °F - 68.0 °F 69% 30.01 in 10.0 mi Calm Calm - N/A   Clear
1:55 AM 78.8 °F - 68.0 °F 69% 30.01 in 10.0 mi Calm Calm - N/A   Clear
2:15 AM 77.0 °F - 68.0 °F 74% 30.01 in 10.0 mi Calm Calm - N/A   Clear
2:35 AM 73.4 °F - 68.0 °F 83% 30.00 in 10.0 mi Calm Calm - N/A   Clear
2:55 AM 73.4 °F - 68.0 °F 83% 30.01 in 10.0 mi Calm Calm - N/A   Clear
3:15 AM 75.2 °F - 68.0 °F 78% 30.01 in 10.0 mi Calm Calm - N/A   Clear
3:35 AM 75.2 °F - 68.0 °F 78% 30.00 in 10.0 mi Calm Calm - N/A   Clear
3:55 AM 73.4 °F - 68.0 °F 83% 30.00 in 10.0 mi Calm Calm - N/A   Clear
4:15 AM 73.4 °F - 68.0 °F 83% 30.00 in 10.0 mi Calm Calm - N/A   Clear
4:35 AM 71.6 °F - 68.0 °F 88% 30.00 in 10.0 mi Calm Calm - N/A   Clear
4:55 AM 71.6 °F - 68.0 °F 88% 30.00 in 10.0 mi Calm Calm - N/A   Clear
5:15 AM 71.6 °F - 68.0 °F 88% 30.01 in 10.0 mi Calm Calm - N/A   Clear
5:35 AM 71.6 °F - 68.0 °F 88% 30.01 in 10.0 mi Calm Calm - N/A   Clear
5:55 AM 71.6 °F - 66.2 °F 83% 30.01 in 10.0 mi Calm Calm - N/A   Clear
6:15 AM 69.8 °F - 66.2 °F 88% 30.01 in 10.0 mi Calm Calm - N/A   Clear
6:35 AM 71.6 °F - 66.2 °F 83% 30.02 in 10.0 mi Calm Calm - N/A   Clear
6:55 AM 69.8 °F - 68.0 °F 94% 30.02 in 10.0 mi Calm Calm - N/A   Clear
7:15 AM 69.8 °F - 66.2 °F 88% 30.03 in 10.0 mi Calm Calm - N/A   Clear
7:35 AM 71.6 °F - 68.0 °F 88% 30.04 in 10.0 mi Calm Calm - N/A   Clear
7:55 AM 71.6 °F - 68.0 °F 88% 30.04 in 10.0 mi Calm Calm - N/A   Partly Cloudy
8:15 AM 73.4 °F - 69.8 °F 88% 30.05 in 10.0 mi Calm Calm - N/A   Clear
8:35 AM 75.2 °F - 69.8 °F 83% 30.05 in 10.0 mi Calm Calm - N/A   Scattered Clouds
8:55 AM 77.0 °F - 69.8 °F 78% 30.06 in 10.0 mi Calm Calm - N/A   Partly Cloudy
9:15 AM 78.8 °F - 69.8 °F 74% 30.06 in 10.0 mi Calm Calm - N/A   Clear
9:35 AM 80.6 °F 83.9 °F 69.8 °F 70% 30.07 in 10.0 mi Calm Calm - N/A   Clear
9:55 AM 82.4 °F 86.3 °F 69.8 °F 66% 30.07 in 10.0 mi Calm Calm - N/A   Clear
10:15 AM 84.2 °F 88.4 °F 69.8 °F 62% 30.08 in 10.0 mi Calm Calm - N/A   Clear
10:35 AM 84.2 °F 88.4 °F 69.8 °F 62% 30.08 in 10.0 mi Calm Calm - N/A   Clear
10:55 AM 87.8 °F 92.6 °F 69.8 °F 55% 30.08 in 10.0 mi Calm Calm - N/A   Clear
11:15 AM 87.8 °F 92.6 °F 69.8 °F 55% 30.07 in 10.0 mi Calm Calm - N/A   Clear
11:35 AM 87.8 °F 90.4 °F 66.2 °F 49% 30.07 in 10.0 mi Calm Calm - N/A   Clear
11:55 AM 91.4 °F 94.0 °F 66.2 °F 43% 30.07 in 10.0 mi Calm Calm - N/A   Clear
12:15 PM 91.4 °F 93.2 °F 64.4 °F 41% 30.06 in 10.0 mi Calm Calm - N/A   Clear
12:35 PM - - - N/A% - - North - - N/A   Unknown
12:55 PM 93.2 °F 94.9 °F 64.4 °F 38% 30.05 in 10.0 mi Calm Calm - N/A   Unknown
1:15 PM 93.2 °F 94.9 °F 64.4 °F 38% 30.04 in 10.0 mi Calm Calm - N/A   Clear
1:35 PM 96.8 °F 99.0 °F 64.4 °F 34% 30.03 in 10.0 mi South 5.8 mph - N/A   Clear
1:55 PM 96.8 °F 99.0 °F 64.4 °F 34% 30.02 in 10.0 mi SE 3.5 mph - N/A   Clear
2:15 PM 95.0 °F 97.0 °F 64.4 °F 36% 30.01 in 10.0 mi Calm Calm - N/A   Clear
2:35 PM 96.8 °F 98.0 °F 62.6 °F 32% 30.00 in 10.0 mi South 5.8 mph - N/A   Partly Cloudy
2:55 PM 98.6 °F 100.0 °F 62.6 °F 30% 29.99 in 10.0 mi South 4.6 mph - N/A   Partly Cloudy
3:15 PM 98.6 °F 99.4 °F 60.8 °F 29% 29.98 in 10.0 mi East 8.1 mph - N/A   Clear
3:35 PM 98.6 °F 99.4 °F 60.8 °F 29% 29.97 in 10.0 mi Calm Calm - N/A   Clear
3:55 PM 98.6 °F 100.0 °F 62.6 °F 30% 29.96 in 10.0 mi East 8.1 mph - N/A   Clear
4:15 PM 98.6 °F 101.0 °F 64.4 °F 32% 29.95 in 10.0 mi ENE 8.1 mph - N/A   Clear
4:35 PM - - - N/A% - - ENE 9.2 mph - N/A   Unknown
4:55 PM 96.8 °F 98.0 °F 62.6 °F 32% 29.95 in 10.0 mi ENE 9.2 mph - N/A   Clear
5:15 PM 98.6 °F 99.4 °F 60.8 °F 29% 29.94 in 10.0 mi NE 3.5 mph - N/A   Clear
5:35 PM 96.8 °F 96.2 °F 59.0 °F 28% 29.94 in 10.0 mi Calm Calm - N/A   Clear
5:55 PM 96.8 °F 98.0 °F 62.6 °F 32% 29.94 in 10.0 mi NNW 6.9 mph - N/A   Clear
6:15 PM 96.8 °F 98.0 °F 62.6 °F 32% 29.94 in 10.0 mi North 5.8 mph - N/A   Partly Cloudy
6:35 PM 96.8 °F 99.0 °F 64.4 °F 34% 29.94 in 10.0 mi ENE 10.4 mph - N/A   Clear
6:55 PM 95.0 °F 97.0 °F 64.4 °F 36% 29.94 in 10.0 mi East 6.9 mph - N/A   Clear
7:15 PM 93.2 °F 94.9 °F 64.4 °F 38% 29.95 in 10.0 mi East 3.5 mph - N/A   Scattered Clouds
7:35 PM 93.2 °F 96.2 °F 66.2 °F 41% 29.96 in 10.0 mi Calm Calm - N/A   Mostly Cloudy
7:55 PM 91.4 °F 94.0 °F 66.2 °F 43% 29.95 in 10.0 mi Calm Calm - N/A   Partly Cloudy
8:15 PM 89.6 °F 92.2 °F 66.2 °F 46% 29.96 in 10.0 mi Calm Calm - N/A   Scattered Clouds
8:35 PM 87.8 °F 90.4 °F 66.2 °F 49% 29.96 in 10.0 mi West 3.5 mph - N/A   Partly Cloudy
8:55 PM 87.8 °F 89.4 °F 64.4 °F 46% 29.97 in 10.0 mi Calm Calm - N/A   Clear
9:15 PM 86.0 °F 87.3 °F 64.4 °F 48% 29.98 in 10.0 mi Calm Calm - N/A   Clear
9:35 PM 84.2 °F 86.6 °F 66.2 °F 55% 29.98 in 10.0 mi Calm Calm - N/A   Scattered Clouds
9:55 PM 84.2 °F 86.6 °F 66.2 °F 55% 29.99 in 10.0 mi Calm Calm - N/A   Scattered Clouds
10:15 PM 84.2 °F 86.6 °F 66.2 °F 55% 29.99 in 10.0 mi Calm Calm - N/A   Scattered Clouds
10:35 PM 82.4 °F 85.4 °F 68.0 °F 62% 29.99 in 10.0 mi Calm Calm - N/A   Mostly Cloudy
10:55 PM 82.4 °F 85.4 °F 68.0 °F 62% 29.99 in 10.0 mi Calm Calm - N/A   Scattered Clouds
11:15 PM 82.4 °F 85.4 °F 68.0 °F 62% 29.99 in 10.0 mi Calm Calm - N/A   Partly Cloudy
11:35 PM 82.4 °F 85.4 °F 68.0 °F 62% 29.99 in 10.0 mi Calm Calm - N/A   Partly Cloudy
11:55 PM 82.4 °F 85.4 °F 68.0 °F 62% 29.99 in 10.0 mi Calm Calm - N/A   Scattered Clouds